Location: Christianberg
(48.9086°N, 14.0209°E)
Time: 21:36:05
(UTC+00:00)

Cosmos 1271 Rocket - Pass Details

Date: 20 June 2021
Orbit: 498 x 543 km, 81.2° (Epoch: 04 August)

Event Time Altitude Azimuth Distance (km) Brightness Sun altitude
Rises 02:13:01 0° 343° (NNW) 2,602 6.7 -6.5°
Reaches altitude 10° 02:15:11 10° 337° (NNW) 1,714 5.7 -6.2°
Maximum altitude 02:18:48 46° 264° (W) 678 3.0 -5.8°
Drops below altitude 10° 02:22:24 10° 190° (S) 1,709 4.8 -5.4°
Sets 02:24:33 0° 184° (S) 2,594 5.8 -5.2°
